Location: Demre
(36.2444°N, 29.9850°E)
Time: 05:22:26
(UTC+00:00)

NOSS 3-2 (C) - Pass Details

Date: 11 March 2026
Orbit: 672 x 1536 km, 63.4° (Epoch: 2 January)

Event Time Altitude Azimuth Distance (km) Brightness Sun altitude
Rises 17:10:44 0° 210° (SSW) 3,013 6.4 -14.3°
Reaches altitude 10° 17:12:56 10° 210° (SSW) 2,129 5.6 -14.7°
Maximum altitude 17:17:41 89° 131° (SE) 745 2.9 -15.7°
Drops below altitude 10° 17:23:13 10° 32° (NNE) 2,457 5.4 -16.8°
Sets 17:25:55 0° 32° (NNE) 3,518 6.2 -17.3°
